Weather History for KSHN - December, 2012

Change the Weather History Date:

Monday, December 24, 2012

  Actual Average Record
Temperature  
Mean Temperature 36 °F -  
Max Temperature 41 °F 44 °F 59 °F (1972)
Min Temperature 32 °F 34 °F 16 °F (1990)
Degree Days  
Heating Degree Days 28    
Moisture  
Dew Point 36 °F    
Average Humidity 98    
Maximum Humidity 100    
Minimum Humidity 93    
Precipitation  
Precipitation 0.06 in - - ()
Sea Level Pressure  
Sea Level Pressure 30.07 in    
Wind  
Wind Speed 4 mph (NW)    
Max Wind Speed 10 mph    
Max Gust Speed -    
Visibility 8 miles    
Events Rain    
Averages and records for this station are not official NWS values.
T = Trace of Precipitation, MM = Missing Value Source: NWS Daily Summary

Daily Weather History Graph

Daily Weather History Graph

Search for Another Location

Airport or City:

Trip Planner

Search our weather history database for the weather conditions in past years. The results will help you decide how hot, cold, wet, or windy it might be!

Date:

Astronomy

Dec. 24, 2012 Rise Set
Actual Time 7:58 AM PST 4:27 PM PST
Civil Twilight 7:22 AM PST 5:02 PM PST
Nautical Twilight 6:43 AM PST 5:41 PM PST
Astronomical Twilight 6:05 AM PST 6:19 PM PST
Moon 2:02 PM PST (12/24) 4:36 AM PST (12/24)
Length of Visible Light 9h 40m
Length of Day
8h 29m
Waxing Gibbous, 89% of the Moon is Illuminated
Dec 24
Waxing Gibbous
Dec 28
Full
Jan 4
Last Quarter
Jan 11
New
Jan 18
First Quarter

Hourly Weather History & Observations

Time (PST) Temp. Windchill Dew Point Humidity Pressure Visibility Wind Dir Wind Speed Gust Speed Precip Events Conditions
12:53 AM 37.9 °F 30.9 °F 37.0 °F 97% 29.84 in 10.0 mi WSW 10.4 mph - N/A   Overcast
1:53 AM 37.0 °F 30.4 °F 37.0 °F 100% 29.87 in 10.0 mi WSW 9.2 mph - N/A   Overcast
2:53 AM 37.0 °F 31.0 °F 37.0 °F 100% 29.90 in 10.0 mi WSW 8.1 mph - N/A   Overcast
3:53 AM 35.6 °F 28.6 °F 35.6 °F 100% 29.91 in 10.0 mi WSW 9.2 mph - N/A   Overcast
4:53 AM 36.0 °F 32.1 °F 36.0 °F 100% 29.96 in 9.0 mi North 4.6 mph - N/A   Overcast
5:53 AM 35.1 °F 30.1 °F 35.1 °F 100% 29.99 in 3.0 mi North 5.8 mph - N/A   Overcast
6:23 AM 33.8 °F 28.6 °F 33.8 °F 100% 29.99 in 9.0 mi North 5.8 mph - N/A   Overcast
6:30 AM 33.8 °F 30.8 °F 33.8 °F 100% 29.99 in 5.0 mi NNW 3.5 mph - N/A   Overcast
6:37 AM 33.8 °F 30.8 °F 33.8 °F 100% 30.00 in 6.0 mi North 3.5 mph - N/A   Overcast
6:53 AM 33.1 °F - 33.1 °F 100% 30.02 in 10.0 mi Calm Calm - N/A   Overcast
7:10 AM 33.8 °F 30.8 °F 33.8 °F 100% 30.02 in 7.0 mi WNW 3.5 mph - N/A   Overcast
7:53 AM 33.1 °F - 33.1 °F 100% 30.05 in 10.0 mi Calm Calm - N/A   Overcast
8:30 AM 32.0 °F - 32.0 °F 100% 30.05 in 10.0 mi Calm Calm - N/A   Mostly Cloudy
8:38 AM 32.0 °F - 32.0 °F 100% 30.06 in 10.0 mi Calm Calm - N/A   Mostly Cloudy
8:53 AM 33.1 °F - 32.0 °F 96% 30.08 in 10.0 mi Calm Calm - N/A   Overcast
9:28 AM 33.8 °F - 33.8 °F 100% 30.09 in 10.0 mi Calm Calm - N/A   Overcast
9:53 AM 34.0 °F - 34.0 °F 100% 30.12 in 7.0 mi Calm Calm - N/A   Overcast
10:53 AM 37.0 °F - 37.0 °F 100% 30.13 in 10.0 mi Calm Calm - N/A   Overcast
11:53 AM 37.9 °F - 37.9 °F 100% 30.14 in 10.0 mi Calm Calm - N/A   Overcast
12:53 PM 39.9 °F 36.7 °F 39.0 °F 97% 30.14 in 10.0 mi SSW 4.6 mph - N/A   Overcast
1:14 PM 39.2 °F 35.9 °F 39.2 °F 100% 30.13 in 10.0 mi SW 4.6 mph - N/A   Overcast
1:48 PM 41.0 °F 39.0 °F 39.2 °F 93% 30.13 in 10.0 mi WSW 3.5 mph - N/A   Overcast
1:53 PM 41.0 °F 39.0 °F 39.9 °F 96% 30.14 in 10.0 mi WSW 3.5 mph - N/A   Overcast
2:25 PM 41.0 °F - 39.2 °F 93% 30.13 in 10.0 mi Calm Calm - N/A   Overcast
2:49 PM 41.0 °F 39.0 °F 39.2 °F 93% 30.13 in 10.0 mi West 3.5 mph - 0.00 in Rain Light Rain
2:53 PM 41.0 °F - 39.9 °F 96% 30.14 in 10.0 mi Calm Calm - 0.00 in Rain Light Rain
3:03 PM 41.0 °F - 39.2 °F 93% 30.13 in 10.0 mi Calm Calm - 0.00 in   Overcast
3:53 PM 41.0 °F - 39.9 °F 96% 30.14 in 10.0 mi Calm Calm - 0.00 in   Overcast
4:17 PM 39.2 °F - 39.2 °F 100% 30.13 in 10.0 mi Calm Calm - N/A   Overcast
4:53 PM 39.9 °F 37.8 °F 39.0 °F 97% 30.15 in 10.0 mi SE 3.5 mph - 0.05 in Rain Light Rain
5:09 PM 39.2 °F - 39.2 °F 100% 30.13 in 10.0 mi Calm Calm - 0.01 in   Overcast
5:47 PM 39.2 °F - 37.4 °F 93% 30.13 in 2.0 mi Calm Calm - 0.01 in   Mostly Cloudy
5:48 PM 39.0 °F - 37.9 °F 96% 30.14 in 2.0 mi Calm Calm - 0.01 in   Mostly Cloudy
5:56 PM 37.4 °F - 37.4 °F 100% 30.12 in 2.5 mi Calm Calm - N/A   Overcast
6:02 PM 37.4 °F - 37.4 °F 100% 30.12 in 2.5 mi Calm Calm - N/A   Overcast
6:12 PM 37.4 °F - 37.4 °F 100% 30.11 in 1.2 mi Calm Calm - N/A   Overcast
6:50 PM 37.4 °F 34.9 °F 37.4 °F 100% 30.10 in 2.5 mi North 3.5 mph - N/A   Mostly Cloudy
6:53 PM 36.0 °F 33.3 °F 36.0 °F 100% 30.13 in 3.0 mi NNW 3.5 mph - N/A   Mostly Cloudy
7:07 PM 37.4 °F - 37.4 °F 100% 30.11 in 7.0 mi Calm Calm - N/A   Mostly Cloudy
7:14 PM 35.6 °F 32.8 °F 35.6 °F 100% 30.09 in 3.0 mi NE 3.5 mph - N/A   Mostly Cloudy
7:53 PM 36.0 °F - 35.1 °F 97% 30.10 in 3.0 mi Calm Calm - N/A   Overcast
8:45 PM 35.6 °F 32.8 °F 35.6 °F 100% 30.08 in 10.0 mi NNW 3.5 mph - N/A   Partly Cloudy
8:53 PM 36.0 °F 32.1 °F 36.0 °F 100% 30.10 in 10.0 mi North 4.6 mph - N/A   Partly Cloudy
9:53 PM 35.1 °F 31.0 °F 35.1 °F 100% 30.09 in 10.0 mi North 4.6 mph - N/A   Clear
10:53 PM 35.1 °F - 35.1 °F 100% 30.07 in 10.0 mi Calm Calm - N/A   Scattered Clouds
11:53 PM 36.0 °F - 35.1 °F 97% 30.04 in 10.0 mi Calm Calm - N/A   Overcast